This demonstration page uses our WeatherBlox Daily Observations layout. Learn more.

Left ArrowRight Arrow

Hourly Observations for May 9, 2020

Temp ( °F °C ) Dew Point ( °F °C ) Humidity (%) Winds ( mph kmh ) Pressure ( in mb ) Visibility ( mi km ) Precip ( " mm )
12:56 am 00:56 Clear 41 5 30 -1.1 65 65 S 7 11 30.28 1025 10 16 0.00 0.00
1:56 am 01:56 Clear 38 3.3 30 -1.1 73 73 S 8 13 30.25 1024 10 16 0.00 0.00
2:56 am 02:56 Clear 38 3.3 30 -1.1 73 73 S 6 9 30.24 1024 10 16 0.00 0.00
3:56 am 03:56 Clear 39 3.9 29 -1.7 67 67 S 8 13 30.23 1024 10 16 0.00 0.00
4:56 am 04:56 Mostly Clear 40 4.4 30 -1.1 68 68 SSW 8 13 30.22 1023 10 16 0.00 0.00
5:56 am 05:56 Cloudy 43 6.1 31 -0.6 63 63 SW 10 17 30.22 1023 10 16 0.00 0.00
6:56 am 06:56 Cloudy 47 8.3 30 -1.1 52 52 SSW 14 22 30.20 1023 10 16 0.00 0.00
7:56 am 07:56 Cloudy 46 7.8 31 -0.6 56 56 SW 15 24 30.22 1023 10 16 0.00 0.00
8:56 am 08:56 Mostly Cloudy 49 9.4 31 -0.6 50 50 SW 14 22 30.24 1024 10 16 0.00 0.00
9:56 am 09:56 Sunny 50 10 30 -1.1 46 46 WSW 14 22 30.25 1024 10 16 0.00 0.00
10:56 am 10:56 Sunny 55 12.8 33 0.6 44 44 WSW 13 20 30.23 1024 10 16 0.00 0.00
11:56 am 11:56 Sunny 59 15 30 -1.1 33 33 SW 15 24 30.20 1023 10 16 0.00 0.00
12:56 pm 12:56 Sunny 57 13.9 33 0.6 41 41 SW 15 24 30.20 1023 10 16 0.00 0.00
1:56 pm 13:56 Cloudy with Light Rain 56 13.3 40 4.4 55 55 W 10 17 30.21 1023 10 16 0.00 0.00
2:56 pm 14:56 Partly Cloudy 57 13.9 37 2.8 47 47 W 12 19 30.19 1022 10 16 0.00 0.00
3:37 pm 15:37 Cloudy 54 12 41 5 63 63 N 20 31 30.18 1022 10 16 0.00 0.00
3:56 pm 15:56 Cloudy 52 11.1 41 5 66 66 N 15 24 30.20 1023 10 16 0.00 0.00
4:56 pm 16:56 Mostly Cloudy with Light Rain 51 10.6 45 7.2 80 80 N 14 22 30.19 1023 10 16 0.00 0.00
5:56 pm 17:56 Cloudy 55 12.8 40 4.4 57 57 NNW 14 22 30.18 1022 10 16 0.00 0.00
6:56 pm 18:56 Partly Cloudy 56 13.3 37 2.8 49 49 NNW 9 15 30.17 1022 10 16 0.00 0.00
7:56 pm 19:56 Mostly Sunny 55 12.8 32 0 42 42 N 24 39 30.20 1023 10 16 0.00 0.00
8:56 pm 20:56 Clear 49 9.4 30 -1.1 48 48 N 23 37 30.25 1024 10 16 0.00 0.00
9:56 pm 21:56 Clear 45 7.2 29 -1.7 54 54 NNW 21 33 30.30 1026 10 16 0.00 0.00
10:56 pm 22:56 Clear 43 6.1 27 -2.8 53 53 NNW 21 33 30.33 1027 10 16 0.00 0.00
11:56 pm 23:56 Clear 40 4.4 26 -3.3 58 58 NNW 20 31 30.34 1027 10 16 0.00 0.00

Powered by AerisWeather